This demonstration page uses our WeatherBlox Daily Observations layout. Learn more.

Left ArrowRight Arrow

39.29038, -76.61219

Hourly Observations for November 8, 2020

Temp ( °F °C ) Dew Point ( °F °C ) Humidity (%) Winds ( mph kmh ) Pressure ( in mb ) Visibility ( mi km ) Precip ( " mm )
12:54 am 00:54 Clear 47 8.3 44 6.7 90 90 Calm 30.31 1026 10 16 0.00 0.00
1:54 am 01:54 Mostly Clear 47 8.3 44 6.7 90 90 WSW 5 7 30.31 1027 9 14 0.00 0.00
2:54 am 02:54 Clear 47 8.3 44 6.7 90 90 Calm 30.31 1027 10 16 0.00 0.00
3:54 am 03:54 Clear with Fog 45 7.2 43 6.1 93 93 Calm 30.32 1027 10 16 0.00 0.00
4:54 am 04:54 Clear with Fog 48 8.9 44 6.7 86 86 Calm 30.33 1027 10 16 0.00 0.00
5:54 am 05:54 Clear with Fog 43 6.1 41 5 93 93 Calm 30.35 1028 7 11 0.00 0.00
6:54 am 06:54 Partly Cloudy with Fog 44 6.7 41 5 89 89 W 3 6 30.36 1028 6 10 0.00 0.00
7:54 am 07:54 Sunny with Fog 49 9.4 46 7.8 90 90 Calm 30.38 1029 8 13 0.00 0.00
8:54 am 08:54 Sunny 58 14.4 50 10 75 75 Calm 30.39 1029 9 14 0.00 0.00
9:54 am 09:54 Sunny 64 17.8 52 11.1 65 65 Calm 30.39 1029 10 16 0.00 0.00
10:54 am 10:54 Sunny 70 21.1 52 11.1 53 53 Calm 30.39 1029 10 16 0.00 0.00
11:54 am 11:54 Sunny 74 23.3 54 12.2 50 50 Calm 30.37 1028 10 16 0.00 0.00
12:54 pm 12:54 Sunny 76 24.4 54 12.2 47 47 Calm 30.35 1028 10 16 0.00 0.00
1:54 pm 13:54 Sunny 77 25 54 12.2 45 45 S 3 6 30.34 1028 10 16 0.00 0.00
2:54 pm 14:54 Mostly Sunny 77 25 54 12.2 45 45 S 5 7 30.34 1028 10 16 0.00 0.00
3:54 pm 15:54 Mostly Sunny 75 23.9 56 13.3 52 52 ENE 5 7 30.35 1028 10 16 0.00 0.00
4:54 pm 16:54 Mostly Sunny 71 21.7 56 13.3 59 59 SSE 6 9 30.36 1028 10 16 0.00 0.00
5:54 pm 17:54 Mostly Clear 65 18.3 55 12.8 70 70 SE 3 6 30.36 1028 10 16 0.00 0.00
6:54 pm 18:54 Mostly Clear 63 17.2 54 12.2 73 73 Calm 30.36 1028 10 16 0.00 0.00
7:54 pm 19:54 Mostly Clear 59 15 54 12.2 83 83 Calm 30.35 1028 10 16 0.00 0.00
8:54 pm 20:54 Mostly Clear 55 12.8 52 11.1 90 90 Calm 30.36 1028 10 16 0.00 0.00
9:54 pm 21:54 Mostly Clear 57 13.9 54 12.2 90 90 Calm 30.37 1028 10 16 0.00 0.00
10:54 pm 22:54 Mostly Clear 55 12.8 53 11.7 93 93 Calm 30.37 1028 10 16 0.00 0.00
11:54 pm 23:54 Mostly Clear 54 12.2 52 11.1 93 93 Calm 30.35 1028 10 16 0.00 0.00

Powered by AerisWeather